2021-11-30 00:03:22 r, 20.68m,0000000001Hz,0001012685c,0000002.198s, 012.2C,00002191
2021-11-30 00:13:22 r, 20.57m,0000000000Hz,0000914251c,0000001.984s, 012.2C,00002191
2021-11-30 00:23:22 r, 20.56m,0000000000Hz,0000903587c,0000001.961s, 012.2C,00002191
2021-11-30 00:33:22 r, 20.55m,0000000001Hz,0000900864c,0000001.955s, 012.2C,00002191
2021-11-30 00:43:22 r, 20.55m,0000000001Hz,0000892929c,0000001.938s, 012.2C,00002191
2021-11-30 00:53:22 r, 20.54m,0000000001Hz,0000891008c,0000001.934s, 011.9C,00002191
2021-11-30 01:03:24 r, 20.55m,0000000001Hz,0000899473c,0000001.952s, 011.9C,00002191
2021-11-30 01:13:22 r, 20.54m,0000000000Hz,0000892098c,0000001.936s, 011.9C,00002191
2021-11-30 01:23:22 r, 20.54m,0000000001Hz,0000887324c,0000001.926s, 011.6C,00002191
2021-11-30 01:33:24 r, 20.53m,0000000000Hz,0000882954c,0000001.916s, 011.6C,00002191
2021-11-30 01:43:22 r, 20.53m,0000000000Hz,0000876943c,0000001.903s, 011.2C,00002191
2021-11-30 01:53:22 r, 20.52m,0000000000Hz,0000874294c,0000001.897s, 011.2C,00002191
2021-11-30 02:03:22 r, 20.53m,0000000001Hz,0000877391c,0000001.904s, 011.2C,00002191
2021-11-30 02:13:22 r, 20.52m,0000000001Hz,0000873736c,0000001.896s, 011.2C,00002191
2021-11-30 02:23:22 r, 20.52m,0000000001Hz,0000873535c,0000001.896s, 011.2C,00002191
2021-11-30 02:33:22 r, 20.53m,0000000000Hz,0000878146c,0000001.906s, 011.2C,00002191
2021-11-30 02:43:24 r, 20.53m,0000000001Hz,0000883670c,0000001.918s, 010.9C,00002191
2021-11-30 02:53:22 r, 20.54m,0000000001Hz,0000889919c,0000001.931s, 010.9C,00002191
2021-11-30 03:03:23 r, 20.53m,0000000000Hz,0000878721c,0000001.907s, 010.6C,00002191
2021-11-30 03:13:22 r, 20.52m,0000000001Hz,0000876360c,0000001.902s, 010.6C,00002191
2021-11-30 03:23:22 r, 20.52m,0000000001Hz,0000870694c,0000001.890s, 010.3C,00002191
2021-11-30 03:33:24 r, 20.51m,0000000000Hz,0000860178c,0000001.867s, 009.9C,00002191
2021-11-30 03:43:22 r, 20.46m,0000000001Hz,0000826884c,0000001.794s, 009.9C,00002191
2021-11-30 03:53:22 r, 20.41m,0000000000Hz,0000783609c,0000001.701s, 009.6C,00002191
2021-11-30 04:03:24 r, 20.36m,0000000001Hz,0000752695c,0000001.633s, 009.6C,00002191
2021-11-30 04:13:22 r, 20.46m,0000000000Hz,0000823865c,0000001.788s, 009.3C,00002191
2021-11-30 04:23:22 r, 20.23m,0000000001Hz,0000666279c,0000001.446s, 009.3C,00002191
2021-11-30 04:33:22 r, 20.28m,0000000001Hz,0000700036c,0000001.519s, 009.3C,00002191
2021-11-30 04:43:23 r, 20.25m,0000000001Hz,0000683497c,0000001.483s, 009.0C,00002191
2021-11-30 04:53:21 r, 20.38m,0000000001Hz,0000762729c,0000001.655s, 009.0C,00002191
2021-11-30 05:03:23 r, 20.01m,0000000001Hz,0000547289c,0000001.188s, 009.0C,00002191
2021-11-30 05:13:22 r, 20.38m,0000000001Hz,0000772366c,0000001.676s, 008.7C,00002191
2021-11-30 05:23:22 r, 20.15m,0000000001Hz,0000622908c,0000001.352s, 008.7C,00002191
2021-11-30 05:33:22 r, 20.29m,0000000000Hz,0000711286c,0000001.544s, 008.7C,00002191
2021-11-30 05:43:24 r, 20.22m,0000000001Hz,0000666920c,0000001.447s, 008.3C,00002191
2021-11-30 05:53:21 r, 19.75m,0000000001Hz,0000436911c,0000000.948s, 008.0C,00002191
2021-11-30 06:03:22 r, 19.10m,0000000002Hz,0000238368c,0000000.517s, 007.7C,00002191
2021-11-30 06:13:22 r, 18.89m,0000000003Hz,0000198418c,0000000.431s, 007.7C,00002191
2021-11-30 06:23:22 r, 19.36m,0000000002Hz,0000306162c,0000000.664s, 007.4C,00002191
2021-11-30 06:33:22 r, 19.75m,0000000001Hz,0000435334c,0000000.945s, 006.7C,00002191
2021-11-30 06:43:23 r, 19.66m,0000000001Hz,0000402284c,0000000.873s, 006.4C,00002191
2021-11-30 06:53:21 r, 18.80m,0000000003Hz,0000181996c,0000000.395s, 006.4C,00002191
2021-11-30 07:03:21 r, 17.44m,0000000009Hz,0000051770c,0000000.112s, 005.8C,00002191
2021-11-30 07:13:24 r, 15.94m,0000000036Hz,0000013050c,0000000.028s, 005.8C,00002191
2021-11-30 07:23:21 r, 14.12m,0000000189Hz,0000000000c,0000000.000s, 005.8C,00002191
2021-11-30 07:33:23 r, 12.24m,0000001076Hz,0000000000c,0000000.000s, 005.4C,00002191
2021-11-30 07:43:22 r, 10.42m,0000005758Hz,0000000000c,0000000.000s, 005.1C,00002191
2021-11-30 07:53:22 r, 08.95m,0000022374Hz,0000000000c,0000000.000s, 004.8C,00002191
2021-11-30 08:03:24 r, 07.93m,0000057031Hz,0000000000c,0000000.000s, 004.8C,00002191
2021-11-30 08:13:22 r, 07.11m,0000121153Hz,0000000000c,0000000.000s, 004.5C,00002191
2021-11-30 08:23:21 r, 06.49m,0000213483Hz,0000000000c,0000000.000s, 004.5C,00002191
2021-11-30 08:33:24 r, 06.12m,0000301892Hz,0000000000c,0000000.000s, 004.8C,00002191
2021-11-30 08:43:22 r, 00.00m,0000430592Hz,0000000000c,0000000.000s, 005.1C,00002191
2021-11-30 08:53:22 r, 00.00m,0000577601Hz,0000000000c,0000000.000s, 005.8C,00002191
2021-11-30 09:03:22 r, 00.00m,0000598983Hz,0000000000c,0000000.000s, 006.7C,00002191
2021-11-30 09:13:23 r, 00.00m,0000598884Hz,0000000000c,0000000.000s, 007.7C,00002191
2021-11-30 09:23:22 r, 00.00m,0000598772Hz,0000000000c,0000000.000s, 008.7C,00002191
2021-11-30 09:33:23 r, 00.00m,0000598773Hz,0000000000c,0000000.000s, 009.3C,00002191
2021-11-30 09:43:22 r, 00.00m,0000598788Hz,0000000000c,0000000.000s, 009.6C,00002191
2021-11-30 09:53:22 r, 00.00m,0000598662Hz,0000000000c,0000000.000s, 009.9C,00002191
2021-11-30 10:03:22 r, 00.00m,0000598615Hz,0000000000c,0000000.000s, 010.3C,00002191
2021-11-30 10:13:24 r, 00.00m,0000598557Hz,0000000000c,0000000.000s, 010.3C,00002191
2021-11-30 10:23:21 r, 00.00m,0000598625Hz,0000000000c,0000000.000s, 010.6C,00002191
2021-11-30 10:33:22 r, 00.00m,0000598527Hz,0000000000c,0000000.000s, 010.9C,00002191
2021-11-30 10:43:22 r, 00.00m,0000598361Hz,0000000000c,0000000.000s, 011.6C,00002191
2021-11-30 10:53:22 r, 00.00m,0000598379Hz,0000000000c,0000000.000s, 011.9C,00002191
2021-11-30 11:03:24 r, 00.00m,0000598404Hz,0000000000c,0000000.000s, 011.9C,00002191
2021-11-30 11:13:22 r, 00.00m,0000598471Hz,0000000000c,0000000.000s, 012.2C,00002191
2021-11-30 11:23:21 r, 00.00m,0000598375Hz,0000000000c,0000000.000s, 012.5C,00002191
2021-11-30 11:33:22 r, 00.00m,0000598293Hz,0000000000c,0000000.000s, 012.5C,00002191
2021-11-30 11:43:23 r, 00.00m,0000598284Hz,0000000000c,0000000.000s, 012.5C,00002191
2021-11-30 11:53:22 r, 00.00m,0000598285Hz,0000000000c,0000000.000s, 012.8C,00002191
2021-11-30 12:03:21 r, 00.00m,0000598182Hz,0000000000c,0000000.000s, 013.2C,00002191
2021-11-30 12:13:24 r, 00.00m,0000598212Hz,0000000000c,0000000.000s, 013.2C,00002191
2021-11-30 12:23:21 r, 00.00m,0000598183Hz,0000000000c,0000000.000s, 013.5C,00002191
2021-11-30 12:33:23 r, 00.00m,0000598245Hz,0000000000c,0000000.000s, 013.5C,00002191
2021-11-30 12:43:22 r, 00.00m,0000598242Hz,0000000000c,0000000.000s, 013.2C,00002191
2021-11-30 12:53:21 r, 00.00m,0000598222Hz,0000000000c,0000000.000s, 012.8C,00002191
2021-11-30 13:03:21 r, 00.00m,0000598275Hz,0000000000c,0000000.000s, 012.8C,00002191
2021-11-30 13:13:22 r, 00.00m,0000598307Hz,0000000000c,0000000.000s, 012.5C,00002191
2021-11-30 13:23:22 r, 00.00m,0000598164Hz,0000000000c,0000000.000s, 013.2C,00002191
2021-11-30 13:33:21 r, 00.00m,0000598234Hz,0000000000c,0000000.000s, 013.2C,00002191
2021-11-30 13:43:22 r, 00.00m,0000598259Hz,0000000000c,0000000.000s, 013.2C,00002191
2021-11-30 13:53:21 r, 00.00m,0000598163Hz,0000000000c,0000000.000s, 013.5C,00002191
2021-11-30 14:03:21 r, 00.00m,0000598219Hz,0000000000c,0000000.000s, 013.5C,00002191
2021-11-30 14:13:24 r, 00.00m,0000598255Hz,0000000000c,0000000.000s, 013.5C,00002191
2021-11-30 14:23:22 r, 00.00m,0000598310Hz,0000000000c,0000000.000s, 013.5C,00002191
2021-11-30 14:33:21 r, 00.00m,0000598226Hz,0000000000c,0000000.000s, 013.2C,00002191
2021-11-30 14:43:24 r, 00.00m,0000598292Hz,0000000000c,0000000.000s, 012.8C,00002191
2021-11-30 14:53:21 r, 00.00m,0000598339Hz,0000000000c,0000000.000s, 012.8C,00002191
2021-11-30 15:03:21 r, 00.00m,0000598450Hz,0000000000c,0000000.000s, 012.2C,00002191
2021-11-30 15:13:22 r, 00.00m,0000598545Hz,0000000000c,0000000.000s, 011.9C,00002191
2021-11-30 15:23:21 r, 00.00m,0000598399Hz,0000000000c,0000000.000s, 011.6C,00002191
2021-11-30 15:33:22 r, 00.00m,0000584859Hz,0000000000c,0000000.000s, 011.2C,00002191
2021-11-30 15:43:22 r, 05.81m,0000399933Hz,0000000000c,0000000.000s, 010.9C,00002191
2021-11-30 15:53:22 r, 06.01m,0000335057Hz,0000000000c,0000000.000s, 010.9C,00002191
2021-11-30 16:03:21 r, 06.44m,0000225047Hz,0000000000c,0000000.000s, 010.6C,00002191
2021-11-30 16:13:23 r, 06.96m,0000140147Hz,0000000000c,0000000.000s, 010.6C,00002191
2021-11-30 16:23:21 r, 07.53m,0000082703Hz,0000000000c,0000000.000s, 010.6C,00002191
2021-11-30 16:33:22 r, 08.17m,0000045386Hz,0000000000c,0000000.000s, 010.6C,00002191
2021-11-30 16:43:24 r, 09.23m,0000017186Hz,0000000000c,0000000.000s, 010.3C,00002191
2021-11-30 16:53:21 r, 10.75m,0000004246Hz,0000000000c,0000000.000s, 010.3C,00002191
2021-11-30 17:03:22 r, 12.69m,0000000709Hz,0000000000c,0000000.000s, 010.3C,00002191
2021-11-30 17:13:24 r, 14.58m,0000000125Hz,0000003717c,0000000.008s, 010.3C,00002191
2021-11-30 17:23:22 r, 16.34m,0000000025Hz,0000018916c,0000000.041s, 010.3C,00002191
2021-11-30 17:33:21 r, 17.45m,0000000009Hz,0000052657c,0000000.114s, 010.3C,00002191
2021-11-30 17:43:22 r, 17.90m,0000000006Hz,0000078997c,0000000.171s, 010.3C,00002191
2021-11-30 17:53:22 r, 18.15m,0000000005Hz,0000098753c,0000000.214s, 010.6C,00002191
2021-11-30 18:03:21 r, 18.09m,0000000005Hz,0000094029c,0000000.204s, 010.6C,00002191
2021-11-30 18:13:22 r, 18.09m,0000000004Hz,0000093600c,0000000.203s, 010.6C,00002191
2021-11-30 18:23:21 r, 18.16m,0000000004Hz,0000099852c,0000000.217s, 010.6C,00002191
2021-11-30 18:33:22 r, 17.93m,0000000005Hz,0000081502c,0000000.177s, 010.9C,00002191
2021-11-30 18:43:23 r, 17.97m,0000000005Hz,0000084700c,0000000.184s, 010.9C,00002191
2021-11-30 18:53:21 r, 17.98m,0000000005Hz,0000085899c,0000000.186s, 010.9C,00002191
2021-11-30 19:03:21 r, 17.94m,0000000005Hz,0000081955c,0000000.178s, 010.9C,00002191
2021-11-30 19:13:24 r, 18.04m,0000000005Hz,0000089210c,0000000.194s, 010.9C,00002191
2021-11-30 19:23:22 r, 18.13m,0000000005Hz,0000097101c,0000000.211s, 010.9C,00002191
2021-11-30 19:33:22 r, 18.15m,0000000004Hz,0000098711c,0000000.214s, 010.9C,00002191
2021-11-30 19:43:24 r, 18.25m,0000000004Hz,0000109005c,0000000.237s, 010.9C,00002191
2021-11-30 19:53:22 r, 18.36m,0000000004Hz,0000120071c,0000000.261s, 010.9C,00002191
2021-11-30 20:03:21 r, 18.31m,0000000004Hz,0000114212c,0000000.248s, 010.9C,00002191
2021-11-30 20:13:22 r, 18.36m,0000000004Hz,0000119579c,0000000.260s, 011.2C,00002191
2021-11-30 20:23:23 r, 18.33m,0000000004Hz,0000117019c,0000000.254s, 011.2C,00002191
2021-11-30 20:33:22 r, 18.15m,0000000005Hz,0000098547c,0000000.214s, 010.9C,00002191
2021-11-30 20:43:23 r, 18.27m,0000000004Hz,0000110544c,0000000.240s, 010.9C,00002191
2021-11-30 20:53:22 r, 18.42m,0000000004Hz,0000127173c,0000000.276s, 010.9C,00002191
2021-11-30 21:03:22 r, 18.32m,0000000004Hz,0000115482c,0000000.251s, 010.9C,00002191
2021-11-30 21:13:22 r, 17.98m,0000000006Hz,0000085968c,0000000.187s, 010.9C,00002191
2021-11-30 21:23:24 r, 17.70m,0000000007Hz,0000065724c,0000000.143s, 010.6C,00002191
2021-11-30 21:33:21 r, 17.26m,0000000011Hz,0000043890c,0000000.095s, 010.6C,00002191
2021-11-30 21:43:24 r, 17.22m,0000000011Hz,0000042731c,0000000.093s, 010.6C,00002191
2021-11-30 21:53:22 r, 17.28m,0000000010Hz,0000044856c,0000000.097s, 010.9C,00002191
2021-11-30 22:03:22 r, 17.37m,0000000009Hz,0000048576c,0000000.105s, 010.9C,00002191
2021-11-30 22:13:22 r, 17.54m,0000000008Hz,0000056999c,0000000.124s, 010.9C,00002191
2021-11-30 22:23:23 r, 17.41m,0000000009Hz,0000050683c,0000000.110s, 011.2C,00002191
2021-11-30 22:33:21 r, 17.47m,0000000008Hz,0000053657c,0000000.116s, 011.6C,00002191
2021-11-30 22:43:23 r, 17.53m,0000000008Hz,0000056574c,0000000.123s, 011.6C,00002191
2021-11-30 22:53:22 r, 17.51m,0000000009Hz,0000055501c,0000000.120s, 011.9C,00002191
2021-11-30 23:03:21 r, 17.55m,0000000008Hz,0000057213c,0000000.124s, 012.2C,00002191
2021-11-30 23:13:22 r, 17.55m,0000000008Hz,0000057526c,0000000.125s, 012.2C,00002191
2021-11-30 23:23:24 r, 17.57m,0000000007Hz,0000058598c,0000000.127s, 012.2C,00002191
2021-11-30 23:33:21 r, 17.49m,0000000009Hz,0000054172c,0000000.118s, 012.5C,00002191
2021-11-30 23:43:22 r, 17.74m,0000000007Hz,0000068881c,0000000.149s, 012.5C,00002191
2021-11-30 23:53:23 r, 17.60m,0000000008Hz,0000060367c,0000000.131s, 012.8C,00002191
